Time,TemperatureF,DewpointF,PressureIn,WindDirection,WindDirectionDegrees,WindSpeedMPH,WindSpeedGustMPH,Humidity,HourlyPrecipIn,Conditions,Clouds,dailyrainin,SolarRadiationWatts/m^2,SoftwareType,DateUTC
2013-05-15 00:10:00,52.2,47.0,30.00,SW,226,4.0,12.0,83,0.00,,,0.00,733,weatherlink.com 1.10,2013-05-15 07:10:00,
2013-05-15 00:25:00,52.1,47.0,30.00,SE,126,5.0,13.0,84,0.00,,,0.00,733,weatherlink.com 1.10,2013-05-15 07:25:00,
2013-05-15 00:40:00,52.1,48.0,30.00,SE,127,6.0,17.0,85,0.00,,,0.00,733,weatherlink.com 1.10,2013-05-15 07:40:00,
2013-05-15 00:55:00,51.8,48.0,30.00,SE,131,7.0,13.0,86,0.00,,,0.00,733,weatherlink.com 1.10,2013-05-15 07:55:00,
2013-05-15 01:10:00,51.7,48.0,30.00,SE,138,5.0,14.0,86,0.00,,,0.00,733,weatherlink.com 1.10,2013-05-15 08:10:00,
2013-05-15 01:25:00,51.6,48.0,29.99,SE,144,8.0,15.0,87,0.00,,,0.00,733,weatherlink.com 1.10,2013-05-15 08:25:00,
2013-05-15 01:40:00,51.4,48.0,29.99,SE,129,8.0,19.0,88,0.00,,,0.00,733,weatherlink.com 1.10,2013-05-15 08:40:00,
2013-05-15 01:55:00,51.3,48.0,29.99,ESE,114,8.0,16.0,88,0.00,,,0.00,733,weatherlink.com 1.10,2013-05-15 08:55:00,
2013-05-15 02:10:00,51.1,48.0,29.98,SE,136,10.0,16.0,88,0.00,,,0.00,733,weatherlink.com 1.10,2013-05-15 09:10:00,
2013-05-15 02:25:00,51.0,48.0,29.99,ESE,121,8.0,14.0,88,0.00,,,0.00,733,weatherlink.com 1.10,2013-05-15 09:25:00,
2013-05-15 02:40:00,50.8,47.0,29.99,SE,132,12.0,17.0,88,0.00,,,0.00,733,weatherlink.com 1.10,2013-05-15 09:40:00,
2013-05-15 02:55:00,50.7,47.0,29.99,SE,132,6.0,14.0,88,0.00,,,0.00,733,weatherlink.com 1.10,2013-05-15 09:55:00,
2013-05-15 03:10:00,50.6,48.0,29.99,East,95,11.0,15.0,89,0.00,,,0.00,733,weatherlink.com 1.10,2013-05-15 10:10:00,
2013-05-15 03:25:00,50.6,47.0,29.99,SW,221,6.0,16.0,88,0.00,,,0.00,733,weatherlink.com 1.10,2013-05-15 10:25:00,
2013-05-15 03:40:00,50.4,47.0,29.99,SSW,199,4.0,16.0,88,0.00,,,0.00,733,weatherlink.com 1.10,2013-05-15 10:40:00,
2013-05-15 03:55:00,50.3,47.0,29.99,WNW,284,5.0,15.0,89,0.00,,,0.00,733,weatherlink.com 1.10,2013-05-15 10:55:00,
2013-05-15 04:10:00,50.2,47.0,30.00,SSE,159,4.0,15.0,88,0.00,,,0.00,733,weatherlink.com 1.10,2013-05-15 11:10:00,
2013-05-15 04:25:00,50.1,47.0,30.00,SE,132,6.0,12.0,88,0.00,,,0.00,733,weatherlink.com 1.10,2013-05-15 11:25:00,
2013-05-15 04:40:00,50.0,47.0,30.00,ESE,115,9.0,13.0,88,0.00,,,0.00,733,weatherlink.com 1.10,2013-05-15 11:40:00,
2013-05-15 04:55:00,49.9,47.0,30.00,SE,129,4.0,10.0,89,0.00,,,0.00,733,weatherlink.com 1.10,2013-05-15 11:55:00,
2013-05-15 05:10:00,49.9,47.0,30.00,ESE,122,5.0,12.0,89,0.00,,,0.00,733,weatherlink.com 1.10,2013-05-15 12:10:00,
2013-05-15 05:25:00,49.7,47.0,30.00,South,178,3.0,8.0,90,0.00,,,0.00,733,weatherlink.com 1.10,2013-05-15 12:25:00,
2013-05-15 05:40:00,49.7,47.0,30.00,ESE,116,7.0,10.0,90,0.00,,,0.00,733,weatherlink.com 1.10,2013-05-15 12:40:00,
2013-05-15 06:25:00,50.0,47.0,30.02,SSE,153,5.0,12.0,90,0.00,,,0.00,733,weatherlink.com 1.10,2013-05-15 13:25:00,
2013-05-15 06:40:00,50.2,47.0,30.02,SE,133,8.0,14.0,90,0.00,,,0.00,733,weatherlink.com 1.10,2013-05-15 13:40:00,
2013-05-15 06:56:00,50.4,47.0,30.02,SE,140,6.0,14.0,89,0.00,,,0.00,733,weatherlink.com 1.10,2013-05-15 13:56:00,
2013-05-15 07:26:00,51.3,48.0,30.03,West,272,6.0,16.0,88,0.00,,,0.00,733,weatherlink.com 1.10,2013-05-15 14:26:00,
2013-05-15 07:41:00,51.8,48.0,30.03,South,184,6.0,16.0,87,0.00,,,0.00,733,weatherlink.com 1.10,2013-05-15 14:41:00,
2013-05-15 07:56:00,52.2,48.0,30.04,East,83,9.0,15.0,86,0.00,,,0.00,733,weatherlink.com 1.10,2013-05-15 14:56:00,
2013-05-15 08:11:00,52.8,48.0,30.04,ESE,119,11.0,15.0,85,0.00,,,0.00,733,weatherlink.com 1.10,2013-05-15 15:11:00,
2013-05-15 08:26:00,54.1,49.0,30.03,SSE,150,8.0,12.0,83,0.00,,,0.00,733,weatherlink.com 1.10,2013-05-15 15:26:00,
2013-05-15 08:41:00,55.1,49.0,30.04,ESE,119,9.0,15.0,80,0.00,,,0.00,733,weatherlink.com 1.10,2013-05-15 15:41:00,
2013-05-15 08:56:00,55.2,49.0,30.04,SSE,159,8.0,12.0,80,0.00,,,0.00,733,weatherlink.com 1.10,2013-05-15 15:56:00,
2013-05-15 09:11:00,56.3,50.0,30.04,SE,132,6.0,14.0,80,0.00,,,0.00,733,weatherlink.com 1.10,2013-05-15 16:11:00,
2013-05-15 09:26:00,56.2,49.0,30.05,SSW,209,9.0,14.0,78,0.00,,,0.00,733,weatherlink.com 1.10,2013-05-15 16:26:00,
2013-05-15 10:11:00,58.6,50.0,30.05,SSE,153,4.0,15.0,72,0.00,,,0.00,733,weatherlink.com 1.10,2013-05-15 17:11:00,
2013-05-15 10:26:00,59.3,50.0,30.05,SE,132,9.0,13.0,71,0.00,,,0.00,733,weatherlink.com 1.10,2013-05-15 17:26:00,
2013-05-15 11:11:00,61.3,51.0,30.05,SE,134,3.0,13.0,68,0.00,,,0.00,733,weatherlink.com 1.10,2013-05-15 18:11:00,
2013-05-15 11:26:00,61.4,51.0,30.05,SE,130,7.0,14.0,69,0.00,,,0.00,733,weatherlink.com 1.10,2013-05-15 18:26:00,
2013-05-15 11:41:00,61.7,51.0,30.05,SE,124,6.0,15.0,67,0.00,,,0.00,733,weatherlink.com 1.10,2013-05-15 18:41:00,
2013-05-15 11:56:00,62.5,52.0,30.05,SSW,213,10.0,12.0,69,0.00,,,0.00,733,weatherlink.com 1.10,2013-05-15 18:56:00,
2013-05-15 12:11:00,63.4,52.0,30.04,ESE,110,15.0,15.0,66,0.00,,,0.00,733,weatherlink.com 1.10,2013-05-15 19:11:00,
2013-05-15 12:26:00,63.1,51.0,30.05,South,173,7.0,15.0,66,0.00,,,0.00,733,weatherlink.com 1.10,2013-05-15 19:26:00,
2013-05-15 12:56:00,63.7,52.0,30.04,SE,132,8.0,14.0,65,0.00,,,0.00,733,weatherlink.com 1.10,2013-05-15 19:56:00,
2013-05-15 13:26:00,63.2,52.0,30.04,SE,133,7.0,15.0,67,0.00,,,0.00,733,weatherlink.com 1.10,2013-05-15 20:26:00,
2013-05-15 13:41:00,64.0,51.0,30.04,SE,138,8.0,15.0,64,0.00,,,0.00,733,weatherlink.com 1.10,2013-05-15 20:41:00,
2013-05-15 13:56:00,64.9,51.0,30.04,SSW,200,5.0,14.0,62,0.00,,,0.00,733,weatherlink.com 1.10,2013-05-15 20:56:00,
2013-05-15 14:11:00,64.5,51.0,30.04,SE,126,3.0,12.0,62,0.00,,,0.00,733,weatherlink.com 1.10,2013-05-15 21:11:00,
2013-05-15 14:26:00,63.8,50.0,30.04,SSE,158,7.0,11.0,62,0.00,,,0.00,733,weatherlink.com 1.10,2013-05-15 21:26:00,
2013-05-15 15:11:00,64.7,51.0,30.03,ENE,75,4.0,11.0,62,0.00,,,0.00,733,weatherlink.com 1.10,2013-05-15 22:11:00,
2013-05-15 15:26:00,65.5,52.0,30.03,East,91,7.0,12.0,62,0.00,,,0.00,733,weatherlink.com 1.10,2013-05-15 22:26:00,
2013-05-15 15:42:00,66.2,52.0,30.02,South,182,8.0,13.0,60,0.00,,,0.00,733,weatherlink.com 1.10,2013-05-15 22:42:00,
2013-05-15 15:57:00,65.7,52.0,30.02,SE,132,8.0,12.0,61,0.00,,,0.00,733,weatherlink.com 1.10,2013-05-15 22:57:00,
2013-05-15 16:12:00,66.3,51.0,30.02,SSE,153,5.0,11.0,59,0.00,,,0.00,733,weatherlink.com 1.10,2013-05-15 23:12:00,
2013-05-15 16:27:00,66.5,52.0,30.02,SE,142,6.0,13.0,60,0.00,,,0.00,733,weatherlink.com 1.10,2013-05-15 23:27:00,
2013-05-15 16:42:00,66.5,52.0,30.02,SE,125,6.0,13.0,59,0.00,,,0.00,733,weatherlink.com 1.10,2013-05-15 23:42:00,
2013-05-15 16:57:00,66.6,53.0,30.02,SSW,206,5.0,12.0,62,0.00,,,0.00,733,weatherlink.com 1.10,2013-05-15 23:57:00,
2013-05-15 17:12:00,66.9,53.0,30.01,SE,138,6.0,11.0,61,0.00,,,0.00,733,weatherlink.com 1.10,2013-05-16 00:12:00,
2013-05-15 17:27:00,66.9,52.0,30.01,SSW,195,5.0,11.0,59,0.00,,,0.00,733,weatherlink.com 1.10,2013-05-16 00:27:00,
2013-05-15 17:42:00,67.2,52.0,30.01,SSW,196,4.0,8.0,59,0.00,,,0.00,733,weatherlink.com 1.10,2013-05-16 00:42:00,
2013-05-15 17:57:00,68.1,50.0,30.01,West,268,3.0,8.0,52,0.00,,,0.00,733,weatherlink.com 1.10,2013-05-16 00:57:00,
2013-05-15 18:12:00,67.6,49.0,30.01,WSW,244,4.0,9.0,52,0.00,,,0.00,733,weatherlink.com 1.10,2013-05-16 01:12:00,
2013-05-15 18:27:00,67.1,50.0,30.01,WSW,238,7.0,10.0,55,0.00,,,0.00,733,weatherlink.com 1.10,2013-05-16 01:27:00,
2013-05-15 18:42:00,65.9,51.0,30.00,South,187,4.0,6.0,58,0.00,,,0.00,733,weatherlink.com 1.10,2013-05-16 01:42:00,
2013-05-15 18:57:00,65.0,49.0,30.00,West,272,0.0,5.0,57,0.00,,,0.00,733,weatherlink.com 1.10,2013-05-16 01:57:00,
2013-05-15 19:26:00,65.0,50.0,30.00,SW,226,2.0,5.0,59,0.00,,,0.00,733,weatherlink.com 1.10,2013-05-16 02:26:00,
2013-05-15 19:57:00,60.6,52.0,30.00,SSW,209,2.0,6.0,72,0.00,,,0.00,733,weatherlink.com 1.10,2013-05-16 02:57:00,
2013-05-15 20:12:00,59.2,52.0,30.00,ESE,121,3.0,5.0,77,0.00,,,0.00,733,weatherlink.com 1.10,2013-05-16 03:12:00,
2013-05-15 20:27:00,58.2,52.0,30.01,SSE,153,0.0,4.0,80,0.00,,,0.00,733,weatherlink.com 1.10,2013-05-16 03:27:00,
2013-05-15 20:42:00,57.9,50.0,30.01,SW,226,0.0,4.0,75,0.00,,,0.00,733,weatherlink.com 1.10,2013-05-16 03:42:00,
2013-05-15 20:57:00,58.1,49.0,30.01,West,263,4.0,5.0,71,0.00,,,0.00,733,weatherlink.com 1.10,2013-05-16 03:57:00,
2013-05-15 21:12:00,58.2,48.0,30.01,WSW,244,0.0,4.0,70,0.00,,,0.00,733,weatherlink.com 1.10,2013-05-16 04:12:00,
2013-05-15 21:27:00,57.9,48.0,30.02,SSW,192,1.0,3.0,70,0.00,,,0.00,733,weatherlink.com 1.10,2013-05-16 04:27:00,
2013-05-15 21:42:00,57.7,48.0,30.02,SW,226,2.0,3.0,71,0.00,,,0.00,733,weatherlink.com 1.10,2013-05-16 04:42:00,
2013-05-15 21:57:00,57.5,49.0,30.02,West,276,1.0,2.0,73,0.00,,,0.00,733,weatherlink.com 1.10,2013-05-16 04:57:00,
2013-05-15 22:12:00,57.6,50.0,30.02,WSW,245,0.0,2.0,76,0.00,,,0.00,733,weatherlink.com 1.10,2013-05-16 05:12:00,
2013-05-15 22:27:00,56.8,51.0,30.02,ESE,116,1.0,4.0,80,0.00,,,0.00,733,weatherlink.com 1.10,2013-05-16 05:27:00,
2013-05-15 22:42:00,56.0,51.0,30.02,WSW,237,1.0,4.0,83,0.00,,,0.00,733,weatherlink.com 1.10,2013-05-16 05:42:00,
2013-05-15 22:57:00,56.3,50.0,30.02,SW,215,1.0,5.0,80,0.00,,,0.00,733,weatherlink.com 1.10,2013-05-16 05:57:00,
2013-05-15 23:12:00,56.3,50.0,30.02,SW,215,6.0,9.0,78,0.00,,,0.00,733,weatherlink.com 1.10,2013-05-16 06:12:00,
2013-05-15 23:27:00,56.0,50.0,30.02,SW,215,0.0,4.0,80,0.00,,,0.00,733,weatherlink.com 1.10,2013-05-16 06:27:00,
2013-05-15 23:42:00,55.5,50.0,30.01,SW,230,0.0,2.0,81,0.00,,,0.00,733,weatherlink.com 1.10,2013-05-16 06:42:00,
2013-05-15 23:57:00,55.1,50.0,30.02,SW,222,2.0,2.0,83,0.00,,,0.00,733,weatherlink.com 1.10,2013-05-16 06:57:00,